CZ-6A DEB, 55521

Orbit data source: Space-Track

CZ-6A DEB, 55521 is space debris in SSO originally from a launch on Fri, 11 Nov 2022 UTC launched from the Taiyaun Space Center, China (TSC). Debris objects in space refer to the collection of defunct objects orbiting the Earth. Examples of debris include non-operational satellites, rocket bodies, and fragments generated from explosions, collisions, or faulty payload assembly.

Loading next visibility...
Identifier
55521, 2022-151XT
Orbit
SSO
Country
Flag of CNCN / PRC
Related business
Manufacturer
SAST
Mission
Spacecraft
Bus & Motor
Unknown
Mass
Unknown
Launch date (UTC)
2022-11-11 (3 years ago)
Launch vehicle
Unknown
Launch site
Taiyaun Space Center, China (TSC)
Object type
Payload
Rocket body
Debris
Shape & HBR
Unknown shape, 0.1 m
Radar Cross Section
Small (<0.1 m²)

Expand to show TLE details & history
Last TLE update: 8 hours ago

TLE from 8 hours ago
0 CZ-6A DEB
1 55521U 22151XT  26130.53080194  .00000108  00000-0  86422-4 0  9996
2 55521  98.8626 128.9936 0057492  91.2658 269.5099 14.08546685174239
Epoch: 2026-05-10T12:44Z
TLE epoch observation values (Epoch: 2026-05-10T12:44:21.287Z)
Latitude
-0.00003°
Longitude
69.57236°
Altitude
867.839 km
Speed
7.418 km/s
True Right ascension
08h 35m 58s
True Declination
0° 00' 00"
Sunlit
Object was in daylight at epoch
Visualization orbit readout
Latitude
Unknown
Longitude
Unknown
Altitude
Unknown
Speed
Unknown
Apparent Right ascension
Unknown
Apparent Declination
Unknown
Sunlit
N/A
Visualization observer readout
Local Sidereal Time
04:35:05
Azimuth
Unknown
Elevation
Unknown
Doppler factor
Unknown
Orbital elements
Apogee altitude
903.153 km
Perigee altitude
819.908 km
Semi-major axis
7,239.667 km
Eccentricity
0.00575
Inclination
98.8626°
RAAN
128.9936°
Arg. of periapsis
91.2658°
True anomaly
268.85117°
Mean anomaly
269.5099°
Eccentric anomaly
269.18053°
Mean motion
3.52343 °/min
Orbital period
102.17 mins
BSTAR
0.000086422
Loading maneuver chart data...
Computing Atmospheric mass density...
Loading historical data...
Loading historical data...
Loading historical data...
Loading historical data...
Loading historical data...
Loading historical data...
Loading historical data...

Documentation

Showing up to 5 results
|